WUK731Q LEBB-EGGW

Flight info

Callsign WUK731Q
Flight time 1h 24m
Altitude 36000
Route BISKA P87 BELEN DCT DIDIG DCT MOKOR DCT OLEBA DCT ROGPU DCT DIKRO DCT ELDOP DCT LUGIS UM185 TELTU
Aircraft A321/M-SDE3FGHIRWY/LB1

Departure

Time 2026-05-06 09:13
Airport Bilbao Airport (LEBB)

Arrival

Time 2026-05-06 10:37
Airport London Luton Airport (EGGW)
Time Latitude Longitude Altitude Speed Heading
2026-05-06 08:54 43.30388 -2.90512 133 ft 0 kts 26°
2026-05-06 09:00 43.30376 -2.90520 132 ft 4 kts 28°
2026-05-06 09:00 43.30352 -2.90539 133 ft 4 kts 34°
2026-05-06 09:00 43.30332 -2.90562 133 ft 4 kts 51°
2026-05-06 09:01 43.30321 -2.90588 133 ft 4 kts 105°
2026-05-06 09:01 43.30323 -2.90598 132 ft 0 kts 147°
2026-05-06 09:05 43.30319 -2.90594 133 ft 3 kts 147°
2026-05-06 09:06 43.30283 -2.90562 133 ft 9 kts 146°
2026-05-06 09:06 43.30279 -2.90558 133 ft 0 kts 146°
2026-05-06 09:07 43.30277 -2.90557 133 ft 2 kts 146°
2026-05-06 09:07 43.30244 -2.90532 133 ft 9 kts 164°
2026-05-06 09:07 43.30171 -2.90566 134 ft 14 kts 208°
2026-05-06 09:08 43.30090 -2.90499 135 ft 18 kts 118°
2026-05-06 09:08 43.30021 -2.90322 136 ft 24 kts 117°
2026-05-06 09:08 43.29937 -2.90095 137 ft 29 kts 115°
2026-05-06 09:08 43.29841 -2.89819 138 ft 35 kts 115°
2026-05-06 09:09 43.29749 -2.89596 139 ft 11 kts 157°
2026-05-06 09:09 43.29720 -2.89593 139 ft 0 kts 197°
2026-05-06 09:11 43.29695 -2.89617 139 ft 8 kts 217°
2026-05-06 09:11 43.29646 -2.89707 138 ft 14 kts 247°
2026-05-06 09:12 43.29662 -2.89844 138 ft 13 kts 296°
2026-05-06 09:12 43.29742 -2.90066 138 ft 59 kts 297°
2026-05-06 09:12 43.30060 -2.90920 135 ft 138 kts 297°
2026-05-06 09:12 43.30528 -2.92258 642 ft 166 kts 297°
2026-05-06 09:13 43.31058 -2.93769 1373 ft 187 kts 296°
2026-05-06 09:13 43.31687 -2.95467 2081 ft 213 kts 296°
2026-05-06 09:13 43.32508 -2.97289 2795 ft 234 kts 308°
2026-05-06 09:13 43.33640 -2.98953 3498 ft 242 kts 314°
2026-05-06 09:14 43.34939 -3.00467 4279 ft 248 kts 327°
2026-05-06 09:14 43.36568 -3.01215 5051 ft 257 kts 353°
2026-05-06 09:14 43.38357 -3.00805 5874 ft 268 kts 19°
2026-05-06 09:14 43.40065 -2.99731 6698 ft 271 kts 21°
2026-05-06 09:15 43.41784 -2.98618 7502 ft 274 kts 21°
2026-05-06 09:15 43.43514 -2.97489 8458 ft 276 kts 21°
2026-05-06 09:15 43.45254 -2.96354 9419 ft 278 kts 21°
2026-05-06 09:15 43.47017 -2.95208 10272 ft 285 kts 21°
2026-05-06 09:16 43.48865 -2.94015 10540 ft 308 kts 21°
2026-05-06 09:16 43.50879 -2.92719 10749 ft 331 kts 21°
2026-05-06 09:16 43.53041 -2.91327 10935 ft 353 kts 21°
2026-05-06 09:16 43.55300 -2.89868 11438 ft 362 kts 22°
2026-05-06 09:17 43.57602 -2.88375 12096 ft 366 kts 22°
2026-05-06 09:17 43.59922 -2.86863 12766 ft 370 kts 22°
2026-05-06 09:17 43.62261 -2.85335 13447 ft 374 kts 22°
2026-05-06 09:17 43.64627 -2.83794 14082 ft 378 kts 22°
2026-05-06 09:18 43.66986 -2.82264 14698 ft 381 kts 21°
2026-05-06 09:18 43.69479 -2.81014 15321 ft 381 kts 12°
2026-05-06 09:18 43.72071 -2.80166 15966 ft 384 kts 11°
2026-05-06 09:18 43.74686 -2.79326 16599 ft 388 kts 11°
2026-05-06 09:19 43.77324 -2.78473 17238 ft 391 kts 11°
2026-05-06 09:19 43.79992 -2.77608 17869 ft 395 kts 11°
2026-05-06 09:19 43.82678 -2.76734 18445 ft 398 kts 11°
2026-05-06 09:19 43.85386 -2.75848 18954 ft 401 kts 11°
2026-05-06 09:20 43.88115 -2.74953 19453 ft 404 kts 11°
2026-05-06 09:20 43.90828 -2.74064 19960 ft 407 kts 11°
2026-05-06 09:20 43.93605 -2.73237 20470 ft 409 kts
2026-05-06 09:20 43.96417 -2.72550 20972 ft 412 kts
2026-05-06 09:21 43.99258 -2.71954 21458 ft 414 kts
2026-05-06 09:21 44.02122 -2.71394 21946 ft 417 kts
2026-05-06 09:21 44.05004 -2.70828 22424 ft 420 kts
2026-05-06 09:21 44.07904 -2.70235 22891 ft 423 kts
2026-05-06 09:22 44.10822 -2.69611 23355 ft 425 kts
2026-05-06 09:22 44.13758 -2.68966 23777 ft 428 kts
2026-05-06 09:22 44.16707 -2.68305 24186 ft 430 kts
2026-05-06 09:22 44.19666 -2.67635 24595 ft 431 kts
2026-05-06 09:23 44.22637 -2.66961 24999 ft 433 kts
2026-05-06 09:23 44.25577 -2.66295 25391 ft 435 kts
2026-05-06 09:23 44.28570 -2.65622 25792 ft 436 kts
2026-05-06 09:23 44.31577 -2.64950 26194 ft 438 kts
2026-05-06 09:24 44.34593 -2.64278 26615 ft 439 kts
2026-05-06 09:24 44.37613 -2.63604 27018 ft 441 kts
2026-05-06 09:24 44.40644 -2.62930 27444 ft 441 kts
2026-05-06 09:24 44.43667 -2.62255 28054 ft 438 kts
2026-05-06 09:25 44.46662 -2.61584 28681 ft 434 kts
2026-05-06 09:25 44.49636 -2.60919 29279 ft 431 kts
2026-05-06 09:25 44.52589 -2.60258 29867 ft 428 kts
2026-05-06 09:25 44.55520 -2.59598 30366 ft 426 kts
2026-05-06 09:26 44.58461 -2.58934 30725 ft 427 kts
2026-05-06 09:26 44.61398 -2.58271 31044 ft 429 kts
2026-05-06 09:26 44.64351 -2.57606 31351 ft 431 kts
2026-05-06 09:26 44.67278 -2.56947 31655 ft 432 kts
2026-05-06 09:27 44.70253 -2.56274 31976 ft 434 kts
2026-05-06 09:27 44.73240 -2.55595 32297 ft 435 kts
2026-05-06 09:27 44.76231 -2.54914 32629 ft 436 kts
2026-05-06 09:27 44.79235 -2.54231 32951 ft 437 kts
2026-05-06 09:28 44.82238 -2.53549 33265 ft 438 kts
2026-05-06 09:28 44.85249 -2.52864 33573 ft 439 kts
2026-05-06 09:28 44.88268 -2.52177 33874 ft 440 kts
2026-05-06 09:28 44.91295 -2.51488 34126 ft 441 kts
2026-05-06 09:29 44.94334 -2.50793 34371 ft 442 kts
2026-05-06 09:29 44.97337 -2.50110 34617 ft 443 kts
2026-05-06 09:29 45.00388 -2.49416 34862 ft 444 kts
2026-05-06 09:29 45.03439 -2.48722 35108 ft 444 kts
2026-05-06 09:30 45.06491 -2.48024 35360 ft 445 kts
2026-05-06 09:30 45.09548 -2.47324 35608 ft 446 kts
2026-05-06 09:30 45.12616 -2.46618 35850 ft 446 kts
2026-05-06 09:30 45.15687 -2.45910 35955 ft 448 kts
2026-05-06 09:31 45.17729 -2.45442 35980 ft 449 kts
2026-05-06 09:31 45.23901 -2.44025 35970 ft 449 kts
2026-05-06 09:32 45.30074 -2.42598 35969 ft 449 kts
2026-05-06 09:32 45.36237 -2.41172 35965 ft 449 kts
2026-05-06 09:33 45.42401 -2.39746 35966 ft 448 kts
2026-05-06 09:33 45.48560 -2.38308 35980 ft 449 kts
2026-05-06 09:34 45.54724 -2.36875 35987 ft 449 kts
2026-05-06 09:34 45.60853 -2.35445 35990 ft 449 kts
2026-05-06 09:35 45.67024 -2.34006 35994 ft 449 kts
2026-05-06 09:35 45.73189 -2.32557 35994 ft 449 kts
2026-05-06 09:36 45.79353 -2.31109 35996 ft 448 kts
2026-05-06 09:36 45.85508 -2.29670 35993 ft 448 kts
2026-05-06 09:37 45.91619 -2.28225 35996 ft 447 kts
2026-05-06 09:37 45.97755 -2.26759 35994 ft 447 kts
2026-05-06 09:38 46.03900 -2.25311 35994 ft 447 kts
2026-05-06 09:38 46.10028 -2.23849 35995 ft 446 kts
2026-05-06 09:39 46.16158 -2.22352 35992 ft 446 kts
2026-05-06 09:39 46.22278 -2.20847 35994 ft 446 kts
2026-05-06 09:40 46.28393 -2.19346 35987 ft 445 kts
2026-05-06 09:40 46.37528 -2.17101 35988 ft 445 kts
2026-05-06 09:41 46.43637 -2.15596 35982 ft 445 kts
2026-05-06 09:41 46.49740 -2.14089 35983 ft 445 kts
2026-05-06 09:42 46.55848 -2.12579 35979 ft 445 kts
2026-05-06 09:42 46.61955 -2.11068 35983 ft 445 kts
2026-05-06 09:43 46.68066 -2.09554 35975 ft 445 kts
2026-05-06 09:43 46.74149 -2.08040 35980 ft 446 kts
2026-05-06 09:44 46.80267 -2.06510 35976 ft 446 kts
2026-05-06 09:44 46.86380 -2.04977 35972 ft 446 kts
2026-05-06 09:45 46.92502 -2.03447 35973 ft 446 kts
2026-05-06 09:45 46.98585 -2.01668 35970 ft 446 kts 18°
2026-05-06 09:46 47.04121 -1.97612 35973 ft 447 kts 36°
2026-05-06 09:46 47.09092 -1.92107 35970 ft 448 kts 36°
2026-05-06 09:47 47.14160 -1.86786 35967 ft 447 kts 28°
2026-05-06 09:47 47.19904 -1.83599 35970 ft 445 kts 11°
2026-05-06 09:48 47.25987 -1.81875 35963 ft 445 kts 11°
2026-05-06 09:48 47.32082 -1.80127 35968 ft 446 kts 11°
2026-05-06 09:49 47.38179 -1.78366 35967 ft 446 kts 11°
2026-05-06 09:49 47.44264 -1.76605 35979 ft 446 kts 11°
2026-05-06 09:50 47.50361 -1.74843 35978 ft 446 kts 11°
2026-05-06 09:50 47.56417 -1.73086 35978 ft 446 kts 11°
2026-05-06 09:51 47.62505 -1.71317 35984 ft 446 kts 11°
2026-05-06 09:51 47.68597 -1.69548 35982 ft 446 kts 11°
2026-05-06 09:52 47.74691 -1.67763 35990 ft 446 kts 11°
2026-05-06 09:52 47.80785 -1.65975 35979 ft 446 kts 11°
2026-05-06 09:53 47.86845 -1.64206 35986 ft 446 kts 11°
2026-05-06 09:53 47.92945 -1.62409 35985 ft 446 kts 11°
2026-05-06 09:54 47.99044 -1.60609 35988 ft 446 kts 11°
2026-05-06 09:54 48.05140 -1.58820 36000 ft 447 kts 11°
2026-05-06 09:55 48.11196 -1.57037 35992 ft 447 kts 11°
2026-05-06 09:55 48.17291 -1.55224 35990 ft 447 kts 11°
2026-05-06 09:56 48.23386 -1.53398 35991 ft 447 kts 11°
2026-05-06 09:56 48.29486 -1.51581 35992 ft 447 kts 11°
2026-05-06 09:57 48.35592 -1.49760 35992 ft 447 kts 11°
2026-05-06 09:57 48.41675 -1.47943 35996 ft 448 kts 11°
2026-05-06 09:58 48.47785 -1.46099 35995 ft 448 kts 11°
2026-05-06 09:58 48.53902 -1.44245 35991 ft 448 kts 11°
2026-05-06 09:59 48.60017 -1.42401 35992 ft 448 kts 11°
2026-05-06 09:59 48.66105 -1.40570 35996 ft 449 kts 11°
2026-05-06 10:00 48.72228 -1.38694 35993 ft 449 kts 11°
2026-05-06 10:00 48.78347 -1.36763 35991 ft 449 kts 11°
2026-05-06 10:01 48.84491 -1.34801 35993 ft 450 kts 11°
2026-05-06 10:01 48.90620 -1.32858 35990 ft 450 kts 11°
2026-05-06 10:02 48.96708 -1.30932 35989 ft 450 kts 11°
2026-05-06 10:02 49.02836 -1.28993 35983 ft 450 kts 11°
2026-05-06 10:03 49.08980 -1.27045 35987 ft 451 kts 11°
2026-05-06 10:03 49.15128 -1.25072 35983 ft 451 kts 11°
2026-05-06 10:04 49.21268 -1.23102 35985 ft 451 kts 11°
2026-05-06 10:04 49.27378 -1.21149 35980 ft 452 kts 11°
2026-05-06 10:05 49.33536 -1.19165 35983 ft 452 kts 11°
2026-05-06 10:05 49.39698 -1.17169 35986 ft 453 kts 11°
2026-05-06 10:06 49.45865 -1.15167 35990 ft 453 kts 11°
2026-05-06 10:06 49.52037 -1.13165 35993 ft 453 kts 11°
2026-05-06 10:07 49.58091 -1.10486 35994 ft 454 kts 24°
2026-05-06 10:07 49.63386 -1.05295 35991 ft 455 kts 37°
2026-05-06 10:08 49.68419 -0.99303 35987 ft 456 kts 37°
2026-05-06 10:08 49.73590 -0.93562 35671 ft 461 kts 28°
2026-05-06 10:09 49.76499 -0.91476 34995 ft 461 kts 19°
2026-05-06 10:09 49.79589 -0.90199 34351 ft 460 kts
2026-05-06 10:09 49.82764 -0.89655 33650 ft 458 kts
2026-05-06 10:09 49.85905 -0.89227 32831 ft 459 kts
2026-05-06 10:10 49.89092 -0.88784 31986 ft 461 kts
2026-05-06 10:10 49.92304 -0.88330 31112 ft 464 kts
2026-05-06 10:10 49.95524 -0.87870 30234 ft 467 kts
2026-05-06 10:10 49.98772 -0.87405 29185 ft 470 kts
2026-05-06 10:11 50.02045 -0.86938 28117 ft 473 kts
2026-05-06 10:11 50.05326 -0.86469 27085 ft 475 kts
2026-05-06 10:11 50.08623 -0.85998 26036 ft 477 kts
2026-05-06 10:11 50.11928 -0.85524 25116 ft 476 kts
2026-05-06 10:12 50.15219 -0.85053 24355 ft 473 kts
2026-05-06 10:12 50.18482 -0.84588 23662 ft 468 kts
2026-05-06 10:12 50.21661 -0.84132 22870 ft 463 kts
2026-05-06 10:12 50.24846 -0.83674 22073 ft 457 kts
2026-05-06 10:13 50.28001 -0.83219 21313 ft 451 kts
2026-05-06 10:13 50.31110 -0.82770 20580 ft 445 kts
2026-05-06 10:13 50.34175 -0.82325 19857 ft 440 kts
2026-05-06 10:13 50.37203 -0.81890 19244 ft 435 kts
2026-05-06 10:14 50.40215 -0.81457 19029 ft 435 kts
2026-05-06 10:14 50.43222 -0.81027 18982 ft 434 kts
2026-05-06 10:14 50.46199 -0.80597 18997 ft 435 kts
2026-05-06 10:14 50.49216 -0.80155 18998 ft 435 kts
2026-05-06 10:15 50.52227 -0.79713 18998 ft 435 kts
2026-05-06 10:15 50.55243 -0.79273 18992 ft 435 kts
2026-05-06 10:15 50.58256 -0.78832 18997 ft 435 kts
2026-05-06 10:15 50.61275 -0.78393 18999 ft 435 kts
2026-05-06 10:16 50.64294 -0.77957 18993 ft 435 kts
2026-05-06 10:16 50.67307 -0.77521 18991 ft 435 kts
2026-05-06 10:16 50.70323 -0.77083 18983 ft 435 kts
2026-05-06 10:16 50.73335 -0.76642 18981 ft 435 kts
2026-05-06 10:17 50.76351 -0.76198 18982 ft 435 kts
2026-05-06 10:17 50.79363 -0.75708 18975 ft 435 kts
2026-05-06 10:17 50.82307 -0.74640 18976 ft 431 kts 16°
2026-05-06 10:17 50.85043 -0.72973 18994 ft 415 kts 21°
2026-05-06 10:18 50.87671 -0.71262 18993 ft 412 kts 21°
2026-05-06 10:18 50.90318 -0.69551 18993 ft 411 kts 20°
2026-05-06 10:18 50.92975 -0.67843 18992 ft 411 kts 20°
2026-05-06 10:18 50.95628 -0.66141 18993 ft 411 kts 21°
2026-05-06 10:19 50.98282 -0.64433 18995 ft 411 kts 21°
2026-05-06 10:19 51.00871 -0.62761 18993 ft 411 kts 21°
2026-05-06 10:19 51.03518 -0.61045 18986 ft 412 kts 21°
2026-05-06 10:19 51.06174 -0.59315 18996 ft 412 kts 21°
2026-05-06 10:20 51.08823 -0.57591 18995 ft 412 kts 21°
2026-05-06 10:20 51.11482 -0.55861 18996 ft 412 kts 21°
2026-05-06 10:20 51.14134 -0.54138 18993 ft 412 kts 21°
2026-05-06 10:20 51.16784 -0.52410 18990 ft 412 kts 21°
2026-05-06 10:21 51.19436 -0.50677 18997 ft 412 kts 21°
2026-05-06 10:21 51.22094 -0.48940 18997 ft 417 kts 21°
2026-05-06 10:21 51.24802 -0.47172 18998 ft 434 kts 21°
2026-05-06 10:21 51.27617 -0.45330 18997 ft 439 kts 21°
2026-05-06 10:22 51.30454 -0.43469 18999 ft 441 kts 21°
2026-05-06 10:22 51.33292 -0.41602 18828 ft 437 kts 21°
2026-05-06 10:22 51.36079 -0.39762 18092 ft 432 kts 21°
2026-05-06 10:22 51.38842 -0.37935 17315 ft 427 kts 21°
2026-05-06 10:23 51.41570 -0.36135 16587 ft 421 kts 21°
2026-05-06 10:23 51.44248 -0.34352 16125 ft 411 kts 22°
2026-05-06 10:23 51.46785 -0.32531 15972 ft 396 kts 24°
2026-05-06 10:23 51.49207 -0.30680 15998 ft 376 kts 25°
2026-05-06 10:24 51.51508 -0.28893 16000 ft 357 kts 25°
2026-05-06 10:24 51.53690 -0.27198 15998 ft 340 kts 24°
2026-05-06 10:24 51.55770 -0.25581 15996 ft 324 kts 25°
2026-05-06 10:24 51.57795 -0.24102 15525 ft 323 kts 16°
2026-05-06 10:25 51.60044 -0.23677 14684 ft 332 kts 355°
2026-05-06 10:25 51.62391 -0.24102 13694 ft 346 kts 351°
2026-05-06 10:25 51.64826 -0.24657 12534 ft 360 kts 351°
2026-05-06 10:25 51.67322 -0.25243 11356 ft 373 kts 351°
2026-05-06 10:26 51.69910 -0.25857 10503 ft 377 kts 351°
2026-05-06 10:26 51.72468 -0.26470 10238 ft 363 kts 351°
2026-05-06 10:26 51.74904 -0.27051 10107 ft 345 kts 351°
2026-05-06 10:26 51.77222 -0.27604 9981 ft 329 kts 351°
2026-05-06 10:27 51.79439 -0.28132 9851 ft 315 kts 351°
2026-05-06 10:27 51.81562 -0.28634 9701 ft 302 kts 351°
2026-05-06 10:27 51.83614 -0.29042 9440 ft 294 kts 352°
2026-05-06 10:27 51.85614 -0.29506 9162 ft 287 kts 351°
2026-05-06 10:28 51.87578 -0.29979 8822 ft 284 kts 351°
2026-05-06 10:28 51.89434 -0.30959 8472 ft 281 kts 329°
2026-05-06 10:28 51.90815 -0.33141 8100 ft 281 kts 303°
2026-05-06 10:28 51.91434 -0.36087 7715 ft 284 kts 276°
2026-05-06 10:29 51.91369 -0.39293 7320 ft 285 kts 267°
2026-05-06 10:29 51.91168 -0.42482 6945 ft 285 kts 266°
2026-05-06 10:29 51.90947 -0.45665 6580 ft 284 kts 266°
2026-05-06 10:29 51.90722 -0.48826 6216 ft 282 kts 266°
2026-05-06 10:30 51.90497 -0.51973 5823 ft 281 kts 266°
2026-05-06 10:30 51.90270 -0.55108 5442 ft 280 kts 266°
2026-05-06 10:30 51.90048 -0.58232 5109 ft 278 kts 266°
2026-05-06 10:30 51.89827 -0.61276 4978 ft 267 kts 266°
2026-05-06 10:31 51.89612 -0.64216 4852 ft 258 kts 266°
2026-05-06 10:31 51.89399 -0.67058 4735 ft 249 kts 266°
2026-05-06 10:31 51.89124 -0.69776 4598 ft 242 kts 253°
2026-05-06 10:31 51.88212 -0.71983 4460 ft 235 kts 220°
2026-05-06 10:32 51.86766 -0.73011 4345 ft 226 kts 185°
2026-05-06 10:32 51.85252 -0.72822 4078 ft 220 kts 161°
2026-05-06 10:32 51.83902 -0.71736 3725 ft 214 kts 139°
2026-05-06 10:32 51.83207 -0.70636 3411 ft 209 kts 125°
2026-05-06 10:33 51.82550 -0.68587 3028 ft 202 kts 102°
2026-05-06 10:33 51.82404 -0.66343 3010 ft 201 kts 83°
2026-05-06 10:33 51.82698 -0.64146 3012 ft 200 kts 71°
2026-05-06 10:33 51.83082 -0.61973 3008 ft 202 kts 71°
2026-05-06 10:34 51.83463 -0.59804 3008 ft 200 kts 70°
2026-05-06 10:34 51.83845 -0.57626 2957 ft 202 kts 71°
2026-05-06 10:34 51.84226 -0.55452 2763 ft 200 kts 70°
2026-05-06 10:34 51.84604 -0.53289 2494 ft 200 kts 71°
2026-05-06 10:35 51.84981 -0.51129 2223 ft 197 kts 70°
2026-05-06 10:35 51.85331 -0.49109 1994 ft 171 kts 70°
2026-05-06 10:35 51.85627 -0.47398 1750 ft 148 kts 69°
2026-05-06 10:35 51.85895 -0.45860 1546 ft 137 kts 69°
2026-05-06 10:36 51.86153 -0.44387 1351 ft 137 kts 69°
2026-05-06 10:36 51.86416 -0.42881 1157 ft 139 kts 68°
2026-05-06 10:36 51.86672 -0.41407 959 ft 137 kts 69°
2026-05-06 10:36 51.86930 -0.39914 780 ft 139 kts 69°
2026-05-06 10:37 51.87182 -0.38416 576 ft 138 kts 69°
2026-05-06 10:37 51.87433 -0.37014 524 ft 114 kts 75°
2026-05-06 10:37 51.87579 -0.36178 518 ft 33 kts 75°
2026-05-06 10:37 51.87625 -0.35929 516 ft 12 kts 45°
2026-05-06 10:38 51.87704 -0.35929 516 ft 12 kts 342°
2026-05-06 10:38 51.87775 -0.35999 517 ft 12 kts 300°
2026-05-06 10:38 51.87775 -0.36123 518 ft 12 kts 255°
2026-05-06 10:38 51.87753 -0.36258 518 ft 14 kts 255°
2026-05-06 10:39 51.87725 -0.36419 519 ft 15 kts 253°
2026-05-06 10:39 51.87696 -0.36582 521 ft 15 kts 254°
2026-05-06 10:39 51.87666 -0.36750 523 ft 15 kts 253°
2026-05-06 10:39 51.87716 -0.36873 520 ft 17 kts 339°
2026-05-06 10:40 51.87833 -0.36933 512 ft 11 kts 342°
2026-05-06 10:40 51.87911 -0.36975 512 ft 13 kts 341°
2026-05-06 10:40 51.87997 -0.37040 512 ft 14 kts 311°
2026-05-06 10:40 51.88043 -0.37185 508 ft 11 kts 279°
2026-05-06 10:41 51.88022 -0.37310 508 ft 13 kts 253°
2026-05-06 10:41 51.88007 -0.37389 508 ft 5 kts 250°
2026-05-06 10:41 51.87980 -0.37398 508 ft 5 kts 172°
2026-05-06 10:41 51.87963 -0.37391 508 ft 1 kts 164°
2026-05-06 10:42 51.87951 -0.37385 509 ft 0 kts 162°
2026-05-06 10:42 51.87947 -0.37383 508 ft 0 kts 162°
2026-05-06 10:42 51.87945 -0.37382 508 ft 0 kts 162°